When you browse on this site, cookies collect data to enhance your experience and personalize the content and advertising you see.
Visit our Privacy Policy to learn more. By continuing to use the site, you agree to this use of cookies and data.
  • In Hungary
  • List of Countries
  • For 7 days
  • Water Temperature
  • Satellite Maps
  • Weather Map
  • News
  • Weather Widgets
  • user-avatar
    Login

    Hourly Weather Kisite

    Today, 16 February, Saturday

    Time Temperature Precipitation Wind Pressure Humidity
    00:00 +28°C° 0 mm 3 mps 692 mmHg 40%
    01:00 +28°C° 0 mm 3 mps 692 mmHg 41%
    02:00 +27°C° 0 mm 3 mps 692 mmHg 42%
    03:00 +26°C° 0 mm 2 mps 692 mmHg 44%
    04:00 +26°C° 0 mm 2 mps 692 mmHg 45%
    05:00 +25°C° 0 mm 2 mps 692 mmHg 47%
    06:00 +24°C° 0 mm 1 mps 692 mmHg 49%
    07:00 +26°C° 0 mm 2 mps 693 mmHg 46%
    08:00 +28°C° 0 mm 3 mps 693 mmHg 43%
    09:00 +29°C° 0 mm 3 mps 694 mmHg 42%
    10:00 +31°C° 0 mm 3 mps 694 mmHg 38%
    11:00 +33°C° 0 mm 4 mps 693 mmHg 33%
    12:00 +35°C° 0 mm 4 mps 693 mmHg 28%
    13:00 +36°C° 0 mm 4 mps 693 mmHg 27%
    14:00 +36°C° 0 mm 4 mps 692 mmHg 25%
    15:00 +37°C° 0 mm 5 mps 692 mmHg 23%
    16:00 +37°C° 0 mm 5 mps 691 mmHg 24%
    17:00 +36°C° 0 mm 5 mps 691 mmHg 25%
    18:00 +35°C° 0 mm 6 mps 691 mmHg 26%
    19:00 +34°C° 0 mm 6 mps 692 mmHg 28%
    20:00 +33°C° 0 mm 5 mps 692 mmHg 30%
    21:00 +32°C° 0 mm 5 mps 692 mmHg 32%
    22:00 +32°C° 0 mm 4 mps 692 mmHg 33%
    23:00 +30°C° 0 mm 4 mps 693 mmHg 35%

    Tomorrow, 17 February, Sunday

    Time Temperature Precipitation Wind Pressure Humidity
    00:00 +29°C° 0 mm 3 mps 693 mmHg 36%
    01:00 +29°C° 0 mm 3 mps 692 mmHg 38%
    02:00 +28°C° 0 mm 3 mps 692 mmHg 40%
    03:00 +27°C° 0 mm 2 mps 691 mmHg 41%
    04:00 +27°C° 0 mm 2 mps 691 mmHg 42%
    05:00 +26°C° 0 mm 2 mps 691 mmHg 44%
    06:00 +25°C° 0 mm 2 mps 691 mmHg 45%
    07:00 +27°C° 0 mm 2 mps 692 mmHg 41%
    08:00 +29°C° 0 mm 3 mps 693 mmHg 37%
    09:00 +30°C° 0 mm 4 mps 693 mmHg 34%
    10:00 +33°C° 0 mm 4 mps 693 mmHg 31%
    11:00 +34°C° 0 mm 4 mps 693 mmHg 28%
    12:00 +36°C° 0 mm 4 mps 693 mmHg 24%
    13:00 +36°C° 0 mm 4 mps 692 mmHg 23%
    14:00 +37°C° 0 mm 4 mps 691 mmHg 21%
    15:00 +38°C° 0 mm 4 mps 690 mmHg 19%
    16:00 +39°C° 0 mm 5 mps 690 mmHg 19%
    17:00 +37°C° 0 mm 5 mps 690 mmHg 19%
    18:00 +37°C° 0 mm 5 mps 690 mmHg 20%
    19:00 +36°C° 0 mm 5 mps 690 mmHg 22%
    20:00 +34°C° 0 mm 5 mps 691 mmHg 24%
    21:00 +33°C° 0 mm 6 mps 691 mmHg 26%
    22:00 +32°C° 0 mm 5 mps 691 mmHg 27%
    23:00 +30°C° 0 mm 4 mps 691 mmHg 29%

    Day after tomorrow, 18 February, Monday

    Time Temperature Precipitation Wind Pressure Humidity
    00:00 +29°C° 0 mm 4 mps 691 mmHg 31%
    01:00 +28°C° 0 mm 3 mps 691 mmHg 32%
    02:00 +28°C° 0 mm 3 mps 690 mmHg 34%
    03:00 +27°C° 0 mm 2 mps 690 mmHg 35%
    04:00 +26°C° 0 mm 2 mps 690 mmHg 36%
    05:00 +26°C° 0 mm 2 mps 690 mmHg 37%
    06:00 +25°C° 0 mm 2 mps 690 mmHg 39%
    07:00 +27°C° 0 mm 2 mps 691 mmHg 35%
    08:00 +29°C° 0 mm 3 mps 692 mmHg 31%
    09:00 +32°C° 0 mm 4 mps 693 mmHg 27%
    10:00 +33°C° 0 mm 4 mps 692 mmHg 25%
    11:00 +35°C° 0 mm 4 mps 692 mmHg 24%
    12:00 +36°C° 0 mm 4 mps 692 mmHg 22%
    13:00 +36°C° 0 mm 4 mps 691 mmHg 21%
    14:00 +37°C° 0 mm 4 mps 690 mmHg 20%
    15:00 +38°C° 0 mm 4 mps 689 mmHg 19%
    16:00 +38°C° 0 mm 4 mps 688 mmHg 19%
    17:00 +37°C° 0 mm 4 mps 688 mmHg 20%
    18:00 +37°C° 0 mm 5 mps 688 mmHg 21%
    19:00 +35°C° 0 mm 5 mps 689 mmHg 23%
    20:00 +34°C° 0 mm 5 mps 689 mmHg 25%
    21:00 +33°C° 0 mm 5 mps 690 mmHg 28%
    22:00 +32°C° 0 mm 4 mps 690 mmHg 30%
    23:00 +30°C° 0 mm 4 mps 690 mmHg 31%

    19 February, Tuesday

    Time Temperature Precipitation Wind Pressure Humidity
    00:00 +29°C° 0 mm 3 mps 690 mmHg 33%
    01:00 +29°C° 0 mm 3 mps 690 mmHg 35%
    02:00 +28°C° 0 mm 2 mps 689 mmHg 37%
    03:00 +27°C° 0 mm 2 mps 689 mmHg 38%
    04:00 +27°C° 0 mm 1 mps 689 mmHg 40%
    05:00 +26°C° 0 mm 1 mps 689 mmHg 41%
    06:00 +26°C° 0 mm 1 mps 689 mmHg 42%
    07:00 +27°C° 0 mm 2 mps 690 mmHg 41%
    08:00 +28°C° 0 mm 2 mps 691 mmHg 40%
    09:00 +30°C° 0 mm 3 mps 692 mmHg 39%
    10:00 +31°C° 0 mm 3 mps 692 mmHg 36%
    11:00 +34°C° 0 mm 3 mps 692 mmHg 33%
    12:00 +35°C° 0 mm 3 mps 691 mmHg 30%
    13:00 +35°C° 0 mm 3 mps 690 mmHg 29%
    14:00 +36°C° 0 mm 3 mps 690 mmHg 29%
    15:00 +36°C° 0 mm 3 mps 689 mmHg 28%
    16:00 +36°C° 0 mm 3 mps 689 mmHg 28%
    17:00 +36°C° 0 mm 4 mps 689 mmHg 27%
    18:00 +36°C° 0 mm 4 mps 689 mmHg 27%
    19:00 +35°C° 0 mm 4 mps 689 mmHg 29%
    20:00 +33°C° 0 mm 4 mps 690 mmHg 31%
    21:00 +32°C° 0 mm 4 mps 691 mmHg 33%
    22:00 +31°C° 0 mm 3 mps 691 mmHg 35%
    23:00 +30°C° 0 mm 3 mps 691 mmHg 36%

    20 February, Wednesday

    Time Temperature Precipitation Wind Pressure Humidity
    00:00 +29°C° 0 mm 3 mps 691 mmHg 37%
    01:00 +29°C° 0 mm 3 mps 690 mmHg 38%
    02:00 +28°C° 0 mm 2 mps 690 mmHg 40%
    03:00 +27°C° 0 mm 2 mps 689 mmHg 41%
    04:00 +27°C° 0 mm 2 mps 689 mmHg 42%
    05:00 +26°C° 0 mm 1 mps 690 mmHg 44%
    06:00 +26°C° 0 mm 1 mps 690 mmHg 45%
    07:00 +27°C° 0 mm 2 mps 691 mmHg 42%
    08:00 +29°C° 0 mm 3 mps 692 mmHg 40%
    09:00 +32°C° 0 mm 4 mps 692 mmHg 37%
    10:00 +33°C° 0 mm 4 mps 692 mmHg 34%
    11:00 +34°C° 0 mm 4 mps 692 mmHg 32%
    12:00 +36°C° 0 mm 4 mps 692 mmHg 30%
    13:00 +36°C° 0 mm 4 mps 691 mmHg 28%
    14:00 +37°C° 0 mm 5 mps 690 mmHg 26%
    15:00 +39°C° 0 mm 5 mps 689 mmHg 25%
    16:00 +37°C° 0 mm 5 mps 689 mmHg 26%
    17:00 +37°C° 0 mm 5 mps 690 mmHg 27%
    18:00 +36°C° 0 mm 6 mps 690 mmHg 28%
    19:00 +35°C° 0 mm 5 mps 690 mmHg 30%
    20:00 +34°C° 0 mm 5 mps 691 mmHg 33%
    21:00 +33°C° 0 mm 5 mps 691 mmHg 35%
    22:00 +32°C° 0 mm 5 mps 691 mmHg 37%
    23:00 +32°C° 0 mm 4 mps 691 mmHg 38%

    21 February, Thursday

    Time Temperature Precipitation Wind Pressure Humidity
    00:00 +30°C° 0 mm 4 mps 691 mmHg 39%
    01:00 +30°C° 0 mm 4 mps 691 mmHg 40%
    02:00 +29°C° 0 mm 3 mps 691 mmHg 41%
    03:00 +29°C° 0 mm 3 mps 690 mmHg 41%
    04:00 +28°C° 0 mm 3 mps 691 mmHg 47%
    05:00 +27°C° 0 mm 4 mps 691 mmHg 52%
    06:00 +27°C° 0 mm 4 mps 692 mmHg 57%
    07:00 +27°C° 0.1 mm 5 mps 692 mmHg 57%
    08:00 +28°C° 0.1 mm 5 mps 693 mmHg 57%
    09:00 +29°C° 0.1 mm 5 mps 693 mmHg 56%
    10:00 +30°C° 0 mm 5 mps 693 mmHg 50%
    11:00 +33°C° 0 mm 5 mps 693 mmHg 43%
    12:00 +35°C° 0 mm 5 mps 692 mmHg 36%
    13:00 +35°C° 0 mm 5 mps 692 mmHg 37%
    14:00 +34°C° 0 mm 5 mps 691 mmHg 37%
    15:00 +34°C° 0 mm 5 mps 690 mmHg 38%
    16:00 +34°C° 0 mm 5 mps 690 mmHg 38%
    17:00 +34°C° 0 mm 5 mps 690 mmHg 39%
    18:00 +33°C° 0 mm 5 mps 691 mmHg 39%
    19:00 +32°C° 0.1 mm 4 mps 691 mmHg 42%
    20:00 +30°C° 0.1 mm 4 mps 692 mmHg 44%
    21:00 +29°C° 0.1 mm 3 mps 692 mmHg 47%
    22:00 +29°C° 0.4 mm 3 mps 692 mmHg 49%
    23:00 +28°C° 0.4 mm 3 mps 692 mmHg 51%
    Show more